Home   Weather   Telfs   Past weeks

Flag for Austria Past Weather in Telfs, Tyrol, Austria — Yesterday and Last 2 Weeks

48 °F

Passing clouds.

Feels Like: 45 °F
Forecast: 38 / 60 °F
Wind: 7 mph from West

Location: Innsbruck-Flughafen

Current Time: Oct 24, 2016 at 12:17:42 AM

Latest Report: Oct 23, 2016 at 11:20 PM

Visibility: N/A

Pressure: 30.01 "Hg (27.81 "Hg at 630m altitude)

Humidity: 76%

Dew Point: 41 °F

Location of TelfsLocation

Past Weather in Telfs — Graph


Telfs Temperature Yesterday

Maximum temperature yesterday: 59 °F (at 1:50 PM)
Minimum temperature yesterday: 32 °F (at 2:50 AM)
Average temperature yesterday: 46 °F

High & Low Weather Summary for the Past Weeks

High68 °F (Oct 14, 3:20 PM)100% (Oct 10, 11:50 PM)30.30 "Hg (Oct 10, 11:50 PM)
Low30 °F (Oct 13, 3:20 AM)36% (Oct 13, 3:20 PM)29.74 "Hg (Oct 14, 5:50 PM)
Average47 °F80%30.05 "Hg
* Reported Oct 8 10:20 PM — Oct 23 10:50 PM, Telfs, Weather by CustomWeather, © 2016

Note: Actual official high and low records may vary slightly from our data, if they occured in-between our weather recording intervals... More about our weather records


Telfs Weather History for the Previous 24 Hours

Scroll right to see more
Time TempWeatherWind HumidityBarometerVisibility
10:50 PM
Sun, Oct 23
48 °FPartly cloudy.7 mph76%30.01 "HgN/A
10:20 PM50 °FPartly cloudy.6 mph71%30.01 "HgN/A
9:50 PM50 °FPartly cloudy.3 mph67%29.98 "HgN/A
9:20 PM54 °FPartly cloudy.7 mph58%29.98 "HgN/A
8:50 PM57 °FPartly cloudy.13 mph48%29.98 "HgN/A
8:20 PM57 °FPartly cloudy.12 mph48%29.98 "HgN/A
7:50 PM57 °FPartly cloudy.12 mph48%29.98 "HgN/A
7:20 PM57 °FPartly cloudy.12 mph48%29.98 "HgN/A
6:50 PM57 °FPartly cloudy.17 mph48%29.95 "HgN/A
6:20 PM57 °FPartly cloudy.18 mph48%29.92 "HgN/A
5:50 PM57 °FBroken clouds.16 mph48%29.92 "HgN/A
5:20 PM57 °FScattered clouds.18 mph44%29.92 "HgN/A
4:50 PM57 °FScattered clouds.16 mph44%29.92 "HgN/A
4:20 PM59 °FBroken clouds.14 mph42%29.92 "HgN/A
3:50 PM59 °FBroken clouds.16 mph42%29.92 "HgN/A
3:20 PM59 °FBroken clouds.16 mph42%29.92 "HgN/A
2:50 PM59 °FBroken clouds.17 mph39%29.89 "HgN/A
2:20 PM59 °FScattered clouds.18 mph39%29.92 "HgN/A
1:50 PM59 °FScattered clouds.16 mph39%29.92 "HgN/A
12:50 PM55 °FScattered clouds.8 mph51%29.95 "HgN/A
12:20 PM52 °FScattered clouds.12 mph58%29.98 "HgN/A
11:50 AM50 °FScattered clouds.14 mph62%29.98 "HgN/A
11:20 AM48 °FScattered clouds.14 mph66%29.98 "HgN/A
10:50 AM45 °FScattered clouds.13 mph76%29.98 "HgN/A
10:20 AM43 °FScattered clouds.12 mph76%30.01 "HgN/A
9:50 AM41 °FScattered clouds.10 mph81%30.01 "HgN/A
9:20 AM39 °FScattered clouds.9 mph87%30.01 "HgN/A
8:50 AM36 °FScattered clouds.6 mph93%30.01 "HgN/A
8:20 AM36 °FPartly sunny.3 mph87%30.01 "HgN/A
7:50 AM34 °FBroken clouds.2 mph93%30.01 "HgN/A
7:20 AM34 °FPassing clouds.2 mph93%29.98 "HgN/A
6:50 AM34 °FPassing clouds.3 mph93%29.98 "HgN/A
6:20 AM34 °FClear.2 mph93%29.98 "Hg10 mi
5:50 AM34 °FClear.1 mph93%29.98 "Hg10 mi
5:20 AM34 °FOvercast.1 mph93%29.98 "HgN/A
4:50 AM34 °FPassing clouds.2 mph93%29.98 "HgN/A
4:20 AM34 °FOvercast.2 mph93%29.98 "Hg5 mi
3:50 AM34 °FPassing clouds.1 mph93%29.98 "HgN/A
3:20 AM34 °FPassing clouds.1 mph93%30.01 "Hg4 mi
2:50 AM32 °FChilly.1 mph100%30.01 "HgN/A
2:20 AM34 °FChilly.1 mph100%30.01 "Hg5 mi
1:50 AM34 °FChilly.1 mph93%30.01 "HgN/A
1:20 AM34 °FFog.1 mph93%30.01 "Hg3 mi
12:50 AM36 °FChilly.1 mph93%30.01 "HgN/A
12:20 AM36 °FChilly.2 mph93%30.01 "HgN/A
Weather by CustomWeather, © 2016

See weather overviewHow to use our weather pages